• în România
  • Lista ţărilor
  • Pe 7 zile
  • Temperatura apei
  • Hartă satelitară
  • Meteo pe hartă
  • Widget-uri
  • user-avatar
    Intrare

    Meteo pe oră la Naftalan

    Astăzi, 18 Octombrie, Joi

    Timp Temperatura Precipitaţii Vânt Presiune Umiditate
    00:00 +19°C° 0 mm 5 m/s 769 mmHg 80%
    01:00 +19°C° 0 mm 5 m/s 769 mmHg 80%
    02:00 +17°C° 0 mm 5 m/s 769 mmHg 80%
    03:00 +18°C° 0 mm 4 m/s 769 mmHg 81%
    04:00 +18°C° 0 mm 4 m/s 769 mmHg 81%
    05:00 +18°C° 0 mm 4 m/s 769 mmHg 81%
    06:00 +18°C° 0 mm 4 m/s 769 mmHg 82%
    07:00 +19°C° 0 mm 4 m/s 769 mmHg 75%
    08:00 +20°C° 0 mm 3 m/s 769 mmHg 69%
    09:00 +22°C° 0 mm 3 m/s 769 mmHg 63%
    10:00 +23°C° 0 mm 4 m/s 769 mmHg 58%
    11:00 +25°C° 0 mm 4 m/s 768 mmHg 54%
    12:00 +26°C° 0 mm 4 m/s 768 mmHg 50%
    13:00 +26°C° 0 mm 4 m/s 768 mmHg 51%
    14:00 +26°C° 0 mm 5 m/s 768 mmHg 52%
    15:00 +26°C° 0 mm 5 m/s 767 mmHg 52%
    16:00 +23°C° 0 mm 5 m/s 768 mmHg 58%
    17:00 +22°C° 0 mm 5 m/s 768 mmHg 64%
    18:00 +21°C° 0 mm 5 m/s 768 mmHg 70%
    19:00 +21°C° 0 mm 5 m/s 768 mmHg 71%
    20:00 +20°C° 0 mm 5 m/s 768 mmHg 72%
    21:00 +20°C° 0 mm 5 m/s 769 mmHg 72%
    22:00 +20°C° 0 mm 5 m/s 769 mmHg 74%
    23:00 +19°C° 0 mm 5 m/s 768 mmHg 75%

    Mâine, 19 Octombrie, Vineri

    Timp Temperatura Precipitaţii Vânt Presiune Umiditate
    00:00 +19°C° 0 mm 4 m/s 768 mmHg 76%
    01:00 +19°C° 0 mm 4 m/s 768 mmHg 77%
    02:00 +19°C° 0 mm 4 m/s 768 mmHg 78%
    03:00 +18°C° 0 mm 4 m/s 768 mmHg 79%
    04:00 +18°C° 0 mm 4 m/s 768 mmHg 80%
    05:00 +18°C° 0 mm 4 m/s 768 mmHg 81%
    06:00 +18°C° 0 mm 4 m/s 768 mmHg 81%
    07:00 +20°C° 0 mm 4 m/s 769 mmHg 74%
    08:00 +21°C° 0 mm 4 m/s 769 mmHg 67%
    09:00 +23°C° 0 mm 4 m/s 769 mmHg 59%
    10:00 +23°C° 0 mm 5 m/s 769 mmHg 56%
    11:00 +25°C° 0 mm 5 m/s 768 mmHg 52%
    12:00 +26°C° 0 mm 5 m/s 768 mmHg 49%
    13:00 +26°C° 0 mm 5 m/s 767 mmHg 51%
    14:00 +25°C° 0 mm 5 m/s 767 mmHg 53%
    15:00 +24°C° 0 mm 6 m/s 767 mmHg 54%
    16:00 +23°C° 0 mm 6 m/s 767 mmHg 59%
    17:00 +22°C° 0 mm 6 m/s 767 mmHg 65%
    18:00 +21°C° 0 mm 6 m/s 767 mmHg 70%
    19:00 +20°C° 0 mm 5 m/s 767 mmHg 71%
    20:00 +20°C° 0 mm 5 m/s 767 mmHg 72%
    21:00 +20°C° 0 mm 5 m/s 767 mmHg 73%
    22:00 +20°C° 0 mm 5 m/s 767 mmHg 74%
    23:00 +19°C° 0 mm 5 m/s 767 mmHg 75%

    Poimâine, 20 Octombrie, Sâmbătă

    Timp Temperatura Precipitaţii Vânt Presiune Umiditate
    00:00 +19°C° 0 mm 4 m/s 767 mmHg 76%
    01:00 +19°C° 0 mm 4 m/s 767 mmHg 78%
    02:00 +19°C° 0 mm 4 m/s 766 mmHg 79%
    03:00 +19°C° 0 mm 4 m/s 766 mmHg 80%
    04:00 +18°C° 0 mm 4 m/s 766 mmHg 81%
    05:00 +18°C° 0 mm 4 m/s 766 mmHg 82%
    06:00 +18°C° 0 mm 4 m/s 766 mmHg 83%
    07:00 +20°C° 0 mm 4 m/s 766 mmHg 77%
    08:00 +21°C° 0 mm 4 m/s 766 mmHg 71%
    09:00 +23°C° 0 mm 4 m/s 766 mmHg 65%
    10:00 +23°C° 0 mm 4 m/s 766 mmHg 62%
    11:00 +25°C° 0 mm 4 m/s 765 mmHg 58%
    12:00 +26°C° 0 mm 3 m/s 765 mmHg 55%
    13:00 +26°C° 0 mm 4 m/s 765 mmHg 55%
    14:00 +26°C° 0 mm 4 m/s 764 mmHg 55%
    15:00 +26°C° 0 mm 4 m/s 764 mmHg 54%
    16:00 +25°C° 0 mm 4 m/s 764 mmHg 60%
    17:00 +23°C° 0 mm 4 m/s 764 mmHg 65%
    18:00 +21°C° 0 mm 4 m/s 764 mmHg 70%
    19:00 +21°C° 0 mm 4 m/s 764 mmHg 71%
    20:00 +21°C° 0 mm 4 m/s 764 mmHg 72%
    21:00 +20°C° 0 mm 3 m/s 764 mmHg 73%
    22:00 +20°C° 0 mm 3 m/s 764 mmHg 76%
    23:00 +20°C° 0 mm 2 m/s 763 mmHg 78%

    21 Octombrie, Duminică

    Timp Temperatura Precipitaţii Vânt Presiune Umiditate
    00:00 +19°C° 0 mm 2 m/s 763 mmHg 80%
    01:00 +20°C° 0 mm 1 m/s 763 mmHg 81%
    02:00 +20°C° 0 mm 1 m/s 763 mmHg 83%
    03:00 +20°C° 0 mm 1 m/s 763 mmHg 85%
    04:00 +19°C° 0 mm 1 m/s 763 mmHg 85%
    05:00 +19°C° 0 mm 1 m/s 763 mmHg 85%
    06:00 +19°C° 0 mm 1 m/s 763 mmHg 85%
    07:00 +21°C° 0 mm 1 m/s 763 mmHg 79%
    08:00 +22°C° 0 mm 1 m/s 763 mmHg 72%
    09:00 +24°C° 0 mm 1 m/s 763 mmHg 65%
    10:00 +25°C° 0 mm 1 m/s 763 mmHg 60%
    11:00 +26°C° 0 mm 1 m/s 762 mmHg 55%
    12:00 +27°C° 0 mm 1 m/s 762 mmHg 50%
    13:00 +27°C° 0 mm 2 m/s 762 mmHg 50%
    14:00 +27°C° 0 mm 3 m/s 761 mmHg 50%
    15:00 +27°C° 0 mm 3 m/s 761 mmHg 50%
    16:00 +26°C° 0 mm 4 m/s 761 mmHg 54%
    17:00 +25°C° 0 mm 4 m/s 761 mmHg 58%
    18:00 +23°C° 0 mm 4 m/s 761 mmHg 61%
    19:00 +23°C° 0 mm 4 m/s 761 mmHg 63%
    20:00 +22°C° 0 mm 4 m/s 761 mmHg 64%
    21:00 +22°C° 0 mm 4 m/s 761 mmHg 65%
    22:00 +22°C° 0 mm 3 m/s 761 mmHg 66%
    23:00 +21°C° 0 mm 3 m/s 761 mmHg 67%

    22 Octombrie, Luni

    Timp Temperatura Precipitaţii Vânt Presiune Umiditate
    00:00 +21°C° 0 mm 2 m/s 760 mmHg 67%
    01:00 +21°C° 0 mm 2 m/s 760 mmHg 69%
    02:00 +20°C° 0 mm 2 m/s 760 mmHg 70%
    03:00 +20°C° 0 mm 2 m/s 760 mmHg 71%
    04:00 +20°C° 0 mm 2 m/s 760 mmHg 71%
    05:00 +20°C° 0 mm 2 m/s 760 mmHg 70%
    06:00 +20°C° 0 mm 2 m/s 760 mmHg 70%
    07:00 +21°C° 0 mm 3 m/s 761 mmHg 64%
    08:00 +23°C° 0 mm 4 m/s 761 mmHg 58%
    09:00 +25°C° 0 mm 4 m/s 761 mmHg 52%
    10:00 +27°C° 0 mm 4 m/s 761 mmHg 47%
    11:00 +28°C° 0 mm 4 m/s 761 mmHg 42%
    12:00 +29°C° 0 mm 3 m/s 761 mmHg 38%
    13:00 +30°C° 0 mm 3 m/s 760 mmHg 36%
    14:00 +30°C° 0 mm 3 m/s 760 mmHg 34%
    15:00 +30°C° 0 mm 3 m/s 760 mmHg 32%
    16:00 +28°C° 0 mm 3 m/s 760 mmHg 38%
    17:00 +27°C° 0 mm 2 m/s 761 mmHg 43%
    18:00 +25°C° 0 mm 2 m/s 761 mmHg 49%
    19:00 +25°C° 0 mm 2 m/s 761 mmHg 52%
    20:00 +24°C° 0 mm 2 m/s 762 mmHg 55%
    21:00 +23°C° 0 mm 2 m/s 762 mmHg 59%
    22:00 +23°C° 0 mm 2 m/s 762 mmHg 61%
    23:00 +21°C° 0 mm 3 m/s 762 mmHg 63%

    23 Octombrie, Marţi

    Timp Temperatura Precipitaţii Vânt Presiune Umiditate
    00:00 +21°C° 0 mm 3 m/s 762 mmHg 65%
    01:00 +20°C° 0 mm 3 m/s 762 mmHg 67%
    02:00 +20°C° 0 mm 3 m/s 762 mmHg 68%
    03:00 +20°C° 0 mm 3 m/s 762 mmHg 69%
    04:00 +20°C° 0 mm 2 m/s 763 mmHg 70%
    05:00 +19°C° 0 mm 2 m/s 763 mmHg 71%
    06:00 +19°C° 0 mm 2 m/s 763 mmHg 72%
    07:00 +22°C° 0 mm 1 m/s 763 mmHg 65%
    08:00 +23°C° 0 mm 1 m/s 764 mmHg 58%
    09:00 +25°C° 0 mm 1 m/s 764 mmHg 51%
    10:00 +26°C° 0 mm 1 m/s 764 mmHg 46%
    11:00 +28°C° 0 mm 2 m/s 763 mmHg 41%
    12:00 +29°C° 0 mm 2 m/s 763 mmHg 36%
    13:00 +29°C° 0 mm 3 m/s 763 mmHg 36%
    14:00 +29°C° 0 mm 3 m/s 762 mmHg 37%
    15:00 +29°C° 0 mm 4 m/s 762 mmHg 37%
    16:00 +28°C° 0 mm 4 m/s 762 mmHg 46%
    17:00 +26°C° 0 mm 4 m/s 762 mmHg 56%
    18:00 +23°C° 0 mm 4 m/s 762 mmHg 65%
    19:00 +23°C° 0 mm 4 m/s 762 mmHg 67%
    20:00 +22°C° 0 mm 4 m/s 762 mmHg 69%
    21:00 +22°C° 0 mm 4 m/s 762 mmHg 71%
    22:00 +22°C° 0 mm 3 m/s 762 mmHg 72%
    23:00 +23°C° 0 mm 2 m/s 761 mmHg 73%
    Arată mai mult